Weather History for Oak Ridge, TN

Change the Weather History Date:

Monday, July 1, 2013

  Actual Average (KTYS) Record (KTYS)
Temperature  
Mean Temperature 73 °F 78 °F  
Max Temperature 84 °F 88 °F 105 °F (2012)
Min Temperature 64 °F 68 °F 52 °F (1885)
Degree Days  
Heating Degree Days 0 0  
Month to date heating degree days 0  
Since 1 June heating degree days 4  
Since 1 July heating degree days 0  
Cooling Degree Days 8 13  
Month to date cooling degree days 13  
Year to date cooling degree days 480  
Since 1 June cooling degree days 318  
Growing Degree Days 23 (Base 50)    
Moisture  
Dew Point 66 °F    
Average Humidity 82    
Maximum Humidity 100    
Minimum Humidity 56    
Precipitation  
Precipitation 0.61 in 0.17 in 1.33 in (2003)
Month to date precipitation 0.17  
Year to date precipitation 25.42  
Sea Level Pressure  
Sea Level Pressure 29.85 in    
Wind  
Wind Speed 2 mph (SSW)    
Max Wind Speed 7 mph    
Max Gust Speed -    
Visibility 9 miles    
Events Fog , Rain    
T = Trace of Precipitation, MM = Missing Value Source: NWS Daily Summary

Daily Weather History Graph

Daily Weather History Graph

Search for Another Location

Airport:

Trip Planner

Search our weather history database for the weather conditions in past years. The results will help you decide how hot, cold, wet, or windy it might be!

Date:

Astronomy

Jul. 01, 2013 Rise Set
Actual Time 6:23 AM EDT 8:57 PM EDT
Civil Twilight 5:53 AM EDT 9:27 PM EDT
Nautical Twilight 5:16 AM EDT 10:05 PM EDT
Astronomical Twilight 4:34 AM EDT 10:46 PM EDT
Moon 1:46 AM EDT (7/1) 3:18 PM EDT (7/1)
Length of Visible Light 15h 34m
Length of Day
14h 33m
Waning Crescent, 35% of the Moon is Illuminated
Jul 1
Waning Crescent
Jul 8
New
Jul 15
First Quarter
Jul 22
Full
Jul 29
Last Quarter

Hourly Weather History & Observations

Time (EDT) Temp. Heat Index Dew Point Humidity Pressure Visibility Wind Dir Wind Speed Gust Speed Precip Events Conditions
12:53 AM 72.0 °F - 64.0 °F 76% 29.78 in 10.0 mi WSW 5.8 mph - N/A   Overcast
1:53 AM 66.0 °F - 64.0 °F 93% 29.82 in 4.0 mi Variable 5.8 mph - 0.05 in Rain Rain
2:53 AM 66.0 °F - 64.0 °F 93% 29.77 in 10.0 mi Calm Calm - 0.03 in   Mostly Cloudy
3:53 AM 66.0 °F - 64.0 °F 93% 29.78 in 10.0 mi Calm Calm - N/A   Overcast
4:24 AM 66.2 °F - 64.4 °F 94% 29.83 in 10.0 mi Calm Calm - N/A   Overcast
4:53 AM 64.9 °F - 64.0 °F 97% 29.78 in 10.0 mi Calm Calm - N/A   Partly Cloudy
5:15 AM 64.4 °F - 64.4 °F 100% 29.83 in 10.0 mi Calm Calm - N/A   Scattered Clouds
5:27 AM 66.2 °F - 64.4 °F 94% 29.83 in 10.0 mi Calm Calm - N/A   Mostly Cloudy
5:53 AM 66.0 °F - 64.0 °F 93% 29.80 in 10.0 mi Calm Calm - N/A   Overcast
6:53 AM 66.0 °F - 64.9 °F 96% 29.81 in 5.0 mi Calm Calm - N/A   Overcast
7:53 AM 66.9 °F - 64.9 °F 93% 29.83 in 9.0 mi Calm Calm - N/A   Scattered Clouds
8:53 AM 70.0 °F - 66.0 °F 87% 29.84 in 10.0 mi Calm Calm - N/A   Mostly Cloudy
9:37 AM 71.6 °F - 64.4 °F 78% 29.89 in 10.0 mi Calm Calm - N/A   Mostly Cloudy
9:53 AM 71.1 °F - 66.0 °F 84% 29.86 in 10.0 mi Calm Calm - N/A   Mostly Cloudy
10:53 AM 75.9 °F - 66.0 °F 71% 29.85 in 10.0 mi Calm Calm - N/A   Clear
11:31 AM 77.0 °F - 66.2 °F 69% 29.89 in 10.0 mi Variable 4.6 mph - N/A   Mostly Cloudy
11:51 AM 80.6 °F 82.7 °F 66.2 °F 61% 29.89 in 10.0 mi Variable 3.5 mph - N/A   Scattered Clouds
11:53 AM 80.1 °F 82.3 °F 66.9 °F 64% 29.85 in 10.0 mi Variable 4.6 mph - N/A   Scattered Clouds
12:36 PM 78.8 °F - 66.2 °F 65% 29.89 in 10.0 mi WSW 5.8 mph - N/A   Mostly Cloudy
12:53 PM 81.0 °F 83.0 °F 66.0 °F 60% 29.83 in 10.0 mi WSW 4.6 mph - N/A   Mostly Cloudy
1:02 PM 80.6 °F 82.7 °F 66.2 °F 61% 29.87 in 10.0 mi Calm Calm - N/A   Scattered Clouds
1:53 PM 82.0 °F 83.8 °F 64.9 °F 56% 29.81 in 10.0 mi Calm Calm - N/A   Scattered Clouds
2:53 PM 81.0 °F 82.7 °F 64.9 °F 58% 29.82 in 10.0 mi South 5.8 mph - 0.00 in Rain Light Rain
3:05 PM 75.2 °F - 69.8 °F 83% 29.88 in 1.2 mi SW 6.9 mph - 0.02 in Rain Heavy Rain
3:13 PM 71.6 °F - 69.8 °F 94% 29.90 in 0.5 mi Variable 5.8 mph - 0.15 in Fog , Rain Heavy Rain
3:46 PM 66.2 °F - 64.4 °F 94% 29.92 in 2.0 mi East 4.6 mph - 0.53 in Rain Light Rain
3:53 PM 66.9 °F - 66.0 °F 97% 29.88 in 5.0 mi Calm Calm - 0.53 in Rain Light Rain
4:53 PM 73.9 °F - 66.0 °F 76% 29.86 in 10.0 mi Calm Calm - 0.00 in   Scattered Clouds
5:53 PM 77.0 °F - 66.0 °F 69% 29.84 in 10.0 mi Calm Calm - N/A   Clear
6:53 PM 75.0 °F - 66.9 °F 76% 29.85 in 10.0 mi ENE 3.5 mph - N/A   Scattered Clouds
7:53 PM 73.9 °F - 68.0 °F 82% 29.88 in 10.0 mi Calm Calm - N/A   Overcast
8:53 PM 73.0 °F - 69.1 °F 87% 29.88 in 10.0 mi Calm Calm - N/A   Overcast
9:53 PM 72.0 °F - 68.0 °F 87% 29.88 in 10.0 mi Calm Calm - N/A   Scattered Clouds
10:53 PM 71.1 °F - 66.9 °F 87% 29.90 in 10.0 mi Calm Calm - N/A   Scattered Clouds
11:53 PM 70.0 °F - 66.9 °F 90% 29.90 in 10.0 mi Calm Calm - N/A   Partly Cloudy